This demonstration page uses our WeatherBlox Daily Observations layout. Learn more.

Left ArrowRight Arrow

39.51506, -84.39828

Hourly Observations for June 1, 2015

Temp ( °F °C ) Dew Point ( °F °C ) Humidity (%) Winds ( mph kmh ) Pressure ( in mb ) Visibility ( mi km ) Precip ( " mm )
12:15 am 00:15 Cloudy 56 13.1 49 9.5 79 79 NNE 8 13 30.18 1022 10 16.0934 N/A
12:35 am 00:35 Cloudy 55 12.9 49 9.4 79 79 NNE 9 15 30.15 1021 10 16.0934 N/A
12:55 am 00:55 Cloudy 55 12.5 49 9.5 82 82 NNE 9 15 30.15 1021 10 16.0934 N/A
1:15 am 01:15 Cloudy 55 12.5 48 8.9 79 79 NNE 10 17 30.18 1022 10 16.0934 N/A
1:35 am 01:35 Cloudy 55 12.5 48 8.7 78 78 NE 9 15 30.15 1021 10 16.0934 N/A
1:55 am 01:55 Cloudy 55 12.5 48 8.7 78 78 NNE 10 17 30.15 1021 10 16.0934 N/A
2:15 am 02:15 Cloudy 55 12.5 49 9.2 80 80 NNE 10 17 30.15 1021 10 16.0934 N/A
2:35 am 02:35 Cloudy 55 12.5 48 9 79 79 NNE 9 15 30.15 1021 10 16.0934 N/A
2:55 am 02:55 Cloudy 55 12.5 47 8.5 77 77 NE 7 11 30.15 1021 10 16.0934 N/A
3:15 am 03:15 Cloudy 55 12.5 47 8.4 76 76 NNE 7 11 30.15 1021 10 16.0934 N/A
3:35 am 03:35 Cloudy 55 12.5 47 8.3 76 76 NE 8 13 30.15 1021 10 16.0934 N/A
3:55 am 03:55 Cloudy 55 12.5 48 8.7 78 78 NE 8 13 30.15 1021 10 16.0934 N/A
4:15 am 04:15 Cloudy 55 12.5 48 8.7 78 78 NE 8 13 30.15 1021 10 16.0934 N/A
4:35 am 04:35 Cloudy 55 12.5 48 8.8 78 78 ENE 8 13 30.15 1021 10 16.0934 N/A
4:55 am 04:55 Cloudy 55 12.5 48 8.9 79 79 NE 10 17 30.15 1021 10 16.0934 N/A
5:15 am 05:15 Cloudy 55 12.5 48 9 79 79 ENE 10 17 30.15 1021 10 16.0934 N/A
5:35 am 05:35 Cloudy 55 12.5 48 9 79 79 NE 7 11 30.15 1021 10 16.0934 N/A
5:55 am 05:55 Cloudy 55 12.5 48 9 79 79 NNE 7 11 30.15 1021 10 16.0934 N/A
6:15 am 06:15 Cloudy 55 12.5 48 8.7 78 78 ENE 8 13 30.15 1021 10 16.0934 N/A
6:35 am 06:35 Cloudy 55 12.5 48 8.7 78 78 NE 9 15 30.15 1021 10 16.0934 N/A
6:55 am 06:55 Cloudy 55 12.5 48 8.7 78 78 NNE 7 11 30.15 1021 10 16.0934 N/A
7:15 am 07:15 Cloudy 55 12.5 48 8.7 78 78 NE 12 19 30.15 1021 10 16.0934 N/A
7:35 am 07:35 Cloudy 55 12.5 48 8.8 78 78 NE 9 15 30.15 1021 10 16.0934 N/A
7:55 am 07:55 Cloudy 55 12.5 48 9.1 80 80 NE 9 15 30.18 1022 10 16.0934 N/A
8:15 am 08:15 Cloudy with Light Rain 55 12.5 48 8.9 79 79 NE 8 13 30.18 1022 10 16.0934 N/A
8:35 am 08:35 Cloudy 55 12.5 48 8.7 78 78 ENE 7 11 30.18 1022 10 16.0934 N/A
8:55 am 08:55 Cloudy 55 12.5 47 8.6 77 77 NE 8 13 30.18 1022 10 16.0934 N/A
9:15 am 09:15 Cloudy with Light Rain 55 12.5 48 9 79 79 NNE 6 9 30.18 1022 10 16.0934 N/A
9:35 am 09:35 Cloudy with Drizzle 55 12.5 48 9 79 79 NE 7 11 30.18 1022 10 16.0934 N/A
9:55 am 09:55 Cloudy with Drizzle 55 12.5 48 9.1 80 80 NE 9 15 30.18 1022 10 16.0934 N/A
10:15 am 10:15 Cloudy with Light Rain 55 12.5 48 9 79 79 ENE 8 13 30.18 1022 10 16.0934 N/A
10:35 am 10:35 Cloudy with Drizzle 55 12.5 49 9.2 80 80 NE 10 17 30.18 1022 10 16.0934 N/A
10:55 am 10:55 Cloudy 55 12.5 48 9 79 79 NNE 9 15 30.18 1022 10 16.0934 N/A
11:15 am 11:15 Cloudy 55 12.5 48 9 79 79 NNE 9 15 30.18 1022 10 16.0934 N/A
11:35 am 11:35 Cloudy with Drizzle 55 12.5 47 8.6 77 77 NNE 10 17 30.18 1022 10 16.0934 N/A
11:55 am 11:55 Cloudy with Light Rain 55 12.9 49 9.4 79 79 NE 3 6 30.18 1022 10 16.0934 N/A
12:15 pm 12:15 Cloudy with Light Rain 55 13 49 9.6 80 80 NNE 7 11 30.18 1022 10 16.0934 N/A
12:35 pm 12:35 Cloudy with Rain 57 13.7 51 10.4 81 81 NE 9 15 30.18 1022 10 16.0934 N/A
12:55 pm 12:55 Cloudy with Light Rain 56 13.1 49 9.7 80 80 NE 7 11 30.18 1022 10 16.0934 N/A
1:15 pm 13:15 Cloudy with Rain 56 13.5 51 10.3 81 81 NE 7 11 30.18 1022 10 16.0934 N/A
1:35 pm 13:35 Cloudy with Light Rain 57 13.8 51 10.8 82 82 ENE 8 13 30.18 1022 10 16.0934 N/A
1:55 pm 13:55 Cloudy with Light Rain 57 13.8 52 11 83 83 NE 3 6 30.18 1022 10 16.0934 N/A
2:15 pm 14:15 Cloudy with Light Rain 57 13.8 52 11 83 83 ENE 8 13 30.18 1022 10 16.0934 N/A
2:35 pm 14:35 Cloudy with Light Rain 57 13.8 51 10.7 82 82 ENE 6 9 30.18 1022 10 16.0934 N/A
2:55 pm 14:55 Cloudy with Light Rain 57 13.8 52 10.9 83 83 N N/A 30.18 1022 10 16.0934 N/A
3:15 pm 15:15 Cloudy with Light Rain 57 14 52 10.9 82 82 NE 9 15 30.15 1021 10 16.0934 N/A
3:35 pm 15:35 Cloudy 58 14.5 53 11.5 82 82 NE 12 19 30.15 1021 10 16.0934 N/A
3:55 pm 15:55 Cloudy 60 15.3 53 11.9 80 80 NE 9 15 30.15 1021 10 16.0934 N/A
4:15 pm 16:15 Cloudy 58 14.2 52 11.1 82 82 NE 6 9 30.15 1021 10 16.0934 N/A
4:35 pm 16:35 Cloudy 60 15.3 53 11.8 80 80 NE 9 15 30.15 1021 10 16.0934 N/A
4:55 pm 16:55 Cloudy 60 15.3 53 11.6 79 79 NE 8 13 30.15 1021 10 16.0934 N/A
5:15 pm 17:15 Cloudy 60 15.3 53 11.4 78 78 NE 7 11 30.15 1021 10 16.0934 N/A
5:35 pm 17:35 Cloudy 60 15.3 53 11.8 80 80 N N/A 30.15 1021 10 16.0934 N/A
5:55 pm 17:55 Cloudy 60 15.3 53 11.6 79 79 NNE 8 13 30.12 1020 10 16.0934 N/A
6:15 pm 18:15 Cloudy 60 15.3 52 11.1 76 76 ENE 8 13 30.15 1021 10 16.0934 N/A
6:35 pm 18:35 Cloudy 60 15.3 52 11.1 76 76 NE 5 7 30.15 1021 10 16.0934 N/A
6:55 pm 18:55 Cloudy 60 15.3 53 11.5 78 78 N N/A 30.15 1021 10 16.0934 N/A
7:15 pm 19:15 Cloudy 60 15.3 53 11.5 78 78 N N/A 30.15 1021 10 16.0934 N/A
7:35 pm 19:35 Cloudy 60 15.3 53 11.5 78 78 NNE 7 11 30.15 1021 10 16.0934 N/A
7:55 pm 19:55 Cloudy 60 15.3 52 11.2 77 77 NNE 8 13 30.09 1019 10 16.0934 N/A
8:15 pm 20:15 Cloudy 57 13.8 50 10.2 79 79 N 8 13 30.15 1021 10 16.0934 N/A
8:35 pm 20:35 Cloudy 57 13.8 51 10.3 80 80 N 6 9 30.18 1022 10 16.0934 N/A
8:55 pm 20:55 Cloudy 57 13.8 50 10.1 79 79 NNE 10 17 30.18 1022 10 16.0934 N/A
9:15 pm 21:15 Cloudy 57 13.8 50 10.2 79 79 NNE 9 15 30.15 1021 10 16.0934 N/A
9:35 pm 21:35 Cloudy 57 13.8 50 10.1 79 79 NE 7 11 30.18 1022 10 16.0934 N/A
9:55 pm 21:55 Cloudy 57 13.8 51 10.4 80 80 NNE 9 15 30.18 1022 10 16.0934 N/A
10:15 pm 22:15 Cloudy 57 13.8 50 10.1 79 79 NE 7 11 30.18 1022 10 16.0934 N/A
10:35 pm 22:35 Cloudy 57 13.8 50 10.1 79 79 NE 6 9 30.18 1022 10 16.0934 N/A
10:55 pm 22:55 Cloudy 57 13.8 50 10.1 79 79 NNE 7 11 30.18 1022 10 16.0934 N/A
11:15 pm 23:15 Cloudy 57 13.8 49 9.7 76 76 NE 7 11 30.18 1022 10 16.0934 N/A
11:35 pm 23:35 Cloudy 57 13.8 49 9.5 75 75 NE 7 11 30.18 1022 10 16.0934 N/A
11:55 pm 23:55 Cloudy 57 13.8 49 9.6 76 76 NNE 6 9 30.18 1022 10 16.0934 N/A

Powered by AerisWeather